Dewpoint
33 29 27 27 26 26 28 27 26 26 28 27 26 31 32 41 50 52 52 53 54 53 53 54 57 56 55 55 57 57 56 55 56 55 53 52 52 51 51 51 50 49 48 45
29 29 30 29 33 30 30 29 27 28 27 27 28 28 31 38 44 50 52 52 53 55 55 54 55 55 54 55 57 56 56 55 56 56 53 53 51 50 49 49 49 49 47 44
27 27 33 31 31 29 28 27 27 27 28 29 27 23 28 31 40 43 49 52 52 53 54 54 54 53 53 55 56 56 56 56 56 55 54 50 49 49 47 47 48 48 48 44
27 30 30 30 29 29 25 29 30 30 25 19 22 15 23 28 35 39 43 49 51 49 51 52 52 51 51 54 56 56 56 56 55 55 53 50 50 48 47 48 47 47 46 44
24 30 30 29 28 29 27 32 31 31 28 24 24 20 20 29 33 37 39 42 48 47 47 48 50 50 51 54 55 56 56 56 55 55 54 52 50 50 49 47 47 46 45 44
25 32 30 28 30 30 32 32 29 29 27 23 25 22 21 25 29 33 38 37 41 44 43 44 47 48 51 55 55 56 56 56 56 56 55 53 53 50 48 47 47 45 43 42
28 28 30 32 29 30 29 25 21 21 23 21 26 25 25 27 27 30 35 38 37 39 39 41 46 49 53 55 56 56 56 56 56 56 56 55 53 51 48 46 46 44 41 41
23 19 26 30 28 26 30 25 23 15 20 21 26 23 23 29 33 35 32 34 38 36 38 41 46 50 54 55 56 57 57 57 57 57 57 56 54 49 47 47 47 43 41 39
24 21 33 35 33 29 30 26 27 26 28 26 24 24 22 30 32 37 35 38 38 37 40 43 48 53 55 56 56 57 57 57 57 57 56 54 52 50 47 45 43 41 40 42
25 20 31 34 34 34 29 31 25 26 20 18 18 19 20 23 27 33 36 36 42 43 46 49 52 55 56 56 57 58 57 57 57 56 54 53 50 47 45 44 42 40 43 43
28 22 24 32 30 27 29 28 26 27 24 20 19 20 24 23 29 31 33 38 39 47 48 51 53 55 56 56 57 57 57 57 53 52 50 47 44 43 43 42 42 43 43 42
30 26 21 25 31 30 28 29 27 25 21 25 24 21 23 23 27 33 33 38 41 47 50 51 53 54 55 55 55 55 55 54 51 44 43 43 42 42 43 43 44 44 42 44
31 25 20 20 25 32 31 30 30 29 27 24 22 22 24 26 26 29 33 34 41 46 48 51 52 53 54 55 53 52 51 49 46 44 43 44 44 43 43 44 43 43 43 42
35 30 23 19 19 26 29 28 30 28 26 24 24 23 23 24 25 26 28 32 33 44 47 47 49 51 51 51 49 47 45 47 46 45 46 45 45 44 43 43 42 41 40 39
31 25 27 26 25 24 24 24 26 25 25 23 24 24 25 26 26 25 26 27 30 35 45 45 45 48 48 48 46 45 44 45 46 46 45 45 46 45 43 39 40 41 40 37
32 26 26 28 28 28 28 26 27 26 26 25 25 24 27 27 30 30 30 32 38 41 42 45 43 46 48 46 46 45 45 45 45 44 44 44 43 40 39 39 39 37 34 34
30 30 26 23 26 26 24 26 26 26 26 26 24 26 27 30 31 32 35 38 41 42 44 45 46 45 45 44 45 44 43 42 41 39 39 39 38 36 36 35 36 38 39 38
31 29 27 24 24 17 25 29 28 27 26 25 25 27 29 32 36 36 35 38 37 36 37 38 39 37 36 35 35 35 36 36 36 34 33 33 34 37 39 39 40 40 37 33
35 31 28 24 24 23 24 25 25 24 22 27 27 31 34 36 35 35 31 31 31 30 30 30 31 32 32 31 32 31 31 31 32 36 38 39 39 38 38 39 38 33 30 30
34 33 29 25 21 19 26 28 25 23 21 29 32 34 35 33 26 31 31 30 29 28 28 28 27 27 27 28 29 28 29 32 35 38 38 39 39 40 35 32 31 30 28 28
30 29 26 23 22 27 31 28 26 19 24 30 33 34 35 30 30 31 28 27 26 27 27 27 27 26 27 27 27 28 31 33 37 37 37 34 32 30 29 28 27 27 27 27
32 31 27 25 22 24 30 28 23 28 34 34 34 35 35 33 31 29 27 26 26 25 26 27 28 29 29 29 29 29 30 30 30 29 28 28 28 27 27 27 27 27 27 26
31 33 32 31 31 34 33 30 33 34 35 36 37 38 34 32 30 29 26 26 26 26 29 29 29 29 30 29 30 30 30 29 29 28 27 27 27 27 27 27 27 27 26 26
34 35 32 32 34 37 39 39 39 39 38 39 40 34 33 31 30 28 27 27 26 29 29 29 30 27 26 28 29 30 29 28 28 28 28 28 27 28 28 27 28 27 25 25
37 37 35 34 38 39 39 38 37 37 37 36 34 33 32 31 29 28 28 29 30 30 30 27 25 26 29 29 29 30 29 27 27 26 26 26 26 26 26 26 26 26 26 27
37 36 34 33 36 36 36 37 37 36 35 35 33 32 32 30 29 29 31 31 30 26 26 26 26 28 28 25 24 25 26 24 23 22 24 25 24 23 22 22 21 24 25 26
Lifted_Index
0 0 0 0 -0 -0 -0 -0 0 0 -0 -0 -0 -0 -1 -3 -4 -5 -4 -4 -3 -3 -2 -2 -1 -1 -1 -1 -2 -3 -2 -2 -1 -1 -1 -2 -2 -2 -2 -1 1 1 2 2
1 1 1 1 0 0 0 0 0 0 0 -0 -0 -0 -0 -2 -3 -4 -4 -4 -3 -3 -3 -2 -2 -1 -1 -2 -2 -3 -3 -2 -1 -1 -2 -2 -2 -2 -1 -0 1 2 3 3
2 2 2 2 1 1 1 1 0 0 0 0 0 1 1 -0 -2 -3 -3 -4 -4 -4 -3 -3 -2 -2 -2 -2 -2 -2 -2 -2 -2 -2 -2 -2 -2 -1 -0 1 2 3 4 5
2 2 2 2 2 1 1 1 1 1 1 1 1 1 1 1 0 -1 -2 -3 -4 -4 -4 -3 -3 -2 -2 -2 -2 -2 -2 -1 -1 -1 -1 -1 -1 -1 0 1 2 3 5 6
2 2 2 2 2 1 1 1 1 1 1 1 1 1 1 1 1 0 -1 -2 -3 -3 -4 -3 -3 -2 -2 -2 -2 -1 -1 -1 -1 -1 -1 -1 -1 -1 0 1 1 3 5 6
2 2 2 2 2 1 1 1 1 1 1 1 1 1 1 1 1 1 0 -1 -2 -2 -3 -3 -2 -1 -1 -1 -1 -1 -1 -1 -1 -1 -1 -2 -1 -1 0 1 2 3 5 6
3 3 3 2 2 1 1 1 1 1 1 1 1 1 1 1 1 1 0 0 -1 -1 -2 -2 -1 -0 -0 -0 -0 -1 -1 -1 -1 -1 -1 -2 -1 -1 0 1 3 4 5 5
3 3 3 2 2 1 1 0 0 0 1 1 1 2 1 1 1 0 1 1 0 -0 -1 -1 -0 0 0 0 -0 -0 -0 -1 -1 -1 -2 -2 -1 -1 0 2 3 4 4 4
3 3 3 2 2 1 1 0 0 0 1 1 1 2 2 1 0 0 1 1 1 1 0 -0 -0 -0 0 0 -0 -0 -1 -1 -1 -2 -2 -2 -2 -1 -0 1 2 3 3 3
3 3 2 2 2 1 1 0 0 0 0 1 1 2 1 1 1 1 1 1 1 1 0 0 -0 -1 -1 -1 -1 -1 -1 -2 -2 -2 -2 -2 -2 -1 -1 -0 1 2 2 3
3 3 2 2 2 1 1 0 0 0 0 0 1 1 1 1 1 1 1 1 0 0 -0 -0 -1 -1 -1 -2 -2 -2 -2 -2 -3 -2 -2 -2 -2 -2 -1 -1 0 1 2 3
3 3 3 2 2 1 1 1 0 1 1 1 1 1 1 1 1 1 1 0 -0 -0 -1 -1 -2 -2 -2 -2 -2 -3 -3 -3 -3 -3 -2 -2 -2 -2 -1 -0 1 2 3 4
3 3 3 2 2 1 1 0 0 1 1 1 1 1 1 1 1 1 1 0 -0 -1 -1 -2 -2 -3 -3 -3 -3 -3 -3 -3 -3 -2 -2 -1 -1 -0 0 1 3 4 5 6
3 3 2 2 1 1 0 0 0 1 1 1 1 1 1 1 1 1 1 1 0 -0 -1 -2 -3 -3 -3 -3 -3 -3 -3 -2 -2 -2 -1 -0 1 2 3 4 5 6 7 8
2 2 2 1 1 0 -0 -0 0 1 1 1 1 1 1 1 1 1 1 1 1 0 -0 -1 -2 -3 -3 -3 -2 -2 -2 -1 -1 -1 -0 1 2 3 4 5 6 7 8 9
1 1 1 0 0 -0 -0 0 1 1 1 1 1 1 1 1 1 1 1 1 1 1 0 -0 -1 -2 -2 -2 -2 -1 -1 -0 -0 0 1 2 3 4 5 7 8 9 9 10
1 0 0 0 -0 0 0 1 1 1 2 2 2 2 2 2 2 2 2 2 2 1 1 1 0 -0 -0 -0 -0 0 0 1 1 2 2 3 4 5 7 9 9 10 10 9
0 0 -0 -0 0 1 1 2 2 2 2 3 3 3 3 3 3 3 2 2 2 2 2 2 2 1 1 1 1 1 1 2 2 3 4 5 6 8 9 10 10 10 10 10
0 -0 -0 -0 0 1 2 2 2 3 3 3 3 3 3 3 3 3 3 3 3 3 3 3 3 2 2 2 2 2 2 2 3 4 6 7 9 10 10 10 10 11 12 12
0 -0 -0 0 1 1 1 2 2 3 3 3 3 3 3 3 3 3 3 3 3 3 3 4 4 3 3 3 3 3 3 4 5 7 8 9 10 10 10 10 11 13 13 14
0 0 -0 0 0 1 1 1 2 2 2 3 3 3 3 3 3 3 4 3 3 4 4 4 5 4 5 5 5 5 5 7 8 9 10 10 11 11 12 12 13 14 14 14
0 -0 -0 -0 0 1 1 1 1 2 2 3 3 4 4 4 4 4 4 4 4 4 5 5 5 5 6 8 8 8 8 9 10 10 11 11 12 13 14 14 14 14 14 13
-0 -0 -0 -0 0 0 0 1 1 2 2 3 3 3 3 3 4 4 4 5 5 5 5 5 6 7 8 10 10 10 10 11 11 11 12 13 14 14 15 14 14 14 13 13
-0 -0 -0 -0 0 0 0 0 1 2 2 3 3 3 3 3 4 4 5 5 5 5 6 6 7 8 9 10 11 11 12 13 13 13 14 14 15 15 15 15 14 14 14 14
-1 -1 -0 -0 0 0 0 1 1 2 2 3 3 3 3 3 4 4 5 5 5 6 7 8 8 9 9 11 12 13 14 15 15 15 15 15 15 15 15 14 14 14 15 15
-1 -0 -0 0 0 0 0 1 1 2 2 2 3 3 3 4 4 4 5 5 6 6 8 9 9 9 10 12 13 15 15 16 15 15 15 15 15 15 14 14 14 15 15 15